Погода в Ясной Поляне

Россия / Оренбургская область     51°43′02″N   53°04′42″E
темп.,
°C
ветер,
м/с
пор.,
м/с
влажн.,
%
обл.,
%
осадки,
мм/ч
давл.,
гПа
погр.,
м
8 марта, пн
пн823:00−13юз369878 0.1 1016130
02:00−13ююз41095100 0.0 1014235
05:00−8ююз81588100 0.1 1011644
08:00−6ююз101890100 0.2 1008826
11:00−4юз111694100 0.9 1008906
14:00−2юз101594100 0.7 1009963
17:00−2юз91495100 1.6 1009998
20:00−2юз81396100 0.8 1009877
9 марта, вт
вт923:00−2юз91596100 1.6 1009883
02:00−2юз91596100 1.0 1008817
05:00−1зюз61197100 1.6 1010634
08:00−5зсз2394100 0.6 101164
11:00−4всв2290100 0.6 1011133
14:00−2в3598100 0.9 1010327
17:000ююз61098100 2.3 1008627
20:00−1ююз71298100 2.0 1006678
10 марта, ср
ср1023:00−1ю81398100 4.4 1005760
02:00−7зсз91493100 1.2 1004500
05:00−10зсз6139094 1.3 1006425
08:00−14зсз5119369 0.0 1009245
11:00−14зсз6119144 0.0 1011354
14:00−12з699086 0.0 1012507
17:00−12зсз699093 0.1 1014629
20:00−16зсз51094100 0.0 1015231
11 марта, чт
чт1123:00−20зсз499695 0.1 1016172
02:00−20зсз499692 0.1 1017272
05:00−23сз499496 0.1 1019233
08:00−27сз479433 0.0 1021115
11:00−23сз589119 0.0 1023307
14:00−20сз47895 0.0 1025381
17:00−19зсз48907 0.0 1026380
20:00−23зсз44940 0.0 102768
12 марта, пт
пт1223:00−22зсз349630 0.0 102873
02:00−22зсз239893 0.0 102921
05:00−22з239956 0.0 102920
08:00−22зсз239811 0.0 103020
11:00−17зсз239420 0.0 1032142
14:00−13зсз348721 0.0 1033296
17:00−11сз359016 0.0 1033253
20:00−16сз34880 0.0 103423